Regional Weather Roundup
Issued by NWS Charleston, SC

Current Version | Previous Version | Text Only | Print | Product List | Glossary On
Versions: 1 2 3 4 5 6 7 8 9 10 11 12 13 14 15 16 17 18 19 20 21 22 23 24 25 26 27 28 29 30 31 32 33 34 35 36 37 38 39 40 41 42 43 44 45 46 47 48 49 50
000 ASUS42 KCHS 221310 RWRCHS REGIONAL WEATHER ROUNDUP NATIONAL WEATHER SERVICE CHARLESTON SC 900 AM EDT TUE JUL 22 2014 NOTE: "FAIR" INDICATES FEW OR NO CLOUDS BELOW 12,000 FEET WITH NO SIGNIFICANT WEATHER AND/OR OBSTRUCTIONS TO VISIBILITY. NOT ALL STATIONS ARE QUALITY CONTROLLED BY THE NATIONAL WEATHER SERVICE. USE DATA WITH CAUTION...ESPECIALLY DEWPOINT OBSERVATIONS. SCZ027-030-031-034>040-042>050-221400- ...SOUTH CAROLINA... CITY SKY/WX TMP DP RH WIND PRES REMARKS N CHARLESTON PTSUNNY 82 75 79 N5 30.10S WATERFRONT PRK N/A 81 N/A N/A N8 N/A FORT JOHNSON NOT AVBL MOUNT PLEASANT FAIR 79 77 94 CALM 30.10S JOHNS ISLAND MOSUNNY 79 66 65 CALM 30.10S PINOPOLIS N/A 79 75 89 NE3 30.05R MONCKS CORNER N/A 77 77 100 CALM 30.11S SUMMERVILLE FAIR 79 77 94 NE3 30.12S BEAUFORT MCAS FOG 76 74 93 N3 30.11R VSB 1 BEAUFORT ARPT PTSUNNY 77 77 100 NW5 30.10S HILTON HEAD IS PTSUNNY 79 79 100 CALM 30.11S GEORGETOWN NOT AVBL WALTERBORO CLOUDY 77 N/A N/A CALM 30.12S ORANGEBURG CLOUDY 77 73 87 E5 30.13R BARNWELL CLOUDY 75 73 94 NE5 30.13S AIKEN FAIR 75 75 100 NE8 30.17S MANNING CLOUDY 77 N/A N/A MISG 30.13R KINGSTREE NOT AVBL COLUMBIA CLOUDY 77 73 87 N6 30.14R FOG SUMTER FOG 73 73 100 NE5 30.12R VSB 3/4 FLORENCE FOG 74 73 97 NE6 30.13S VSB 1/4 MYRTLE BEACH CLOUDY 75 72 88 N7 30.11S FOG N MYRTLE BEACH CLOUDY 76 74 93 N6 30.11S $$ GAZ063-065-086>088-099>101-113>116-118-119-134-136>141-150-221400- ...GEORGIA... CITY SKY/WX TMP DP RH WIND PRES REMARKS SAVANNAH ARPT PTSUNNY 78 73 84 NW5 30.11R HUNTER AAF CLOUDY 77 76 98 NW5 30.09S FORT STEWART CLOUDY 76 72 88 N2 30.10S STATESBORO NOT AVBL SYLVANIA CLOUDY 75 75 100 CALM 30.13R CLAXTON PTSUNNY 77 77 100 CALM 30.12S THOMSON CLOUDY 74 74 100 CALM 30.19R AUGUSTA-BUSH CLOUDY 75 72 90 CALM 30.12R AUGUSTA-DANIEL CLOUDY 75 73 93 NE5 30.14S SWAINSBORO CLOUDY 77 77 100 S5 30.13S VIDALIA N/A 77 73 88 CALM 30.12S ALMA CLOUDY 76 72 87 CALM 30.11S WAYCROSS CLOUDY 78 76 95 CALM 30.11R FOG JESUP NOT AVBL BRUNSWICK MOSUNNY 77 73 88 CALM 30.11S SAINT SIMONS SUNNY 77 72 84 NW6 30.10R $$ SCZ027-028-034-036>038-045-046-048>050-GAZ119-141-221400- ...LAKE AND SUPPLEMENTAL COASTAL OBSERVATIONS... STATION/POSITION TIME TEMP WIND PRES WAVE SWELL AIR SEA DIR/SP/G HT/PER HT/PER/DIR (UTC) (F) (DEG/KT/KT) (MB) (FT/S) (FT/S/D) UPR LAKE MARION NOT AVBL WINYAH BAY 1200 75 350/ 2 1019.0S LAKE MURRAY 1200 74 CALM / 2 1020.3R ACE BASIN NERRS 1200 74 CALM 1019.0S FORT PULASKI 1300 75 300/ 7/ 9 1019.6S SAPELO ISLAND 1200 74 340/ 3 1019.0S $$ ANZ835-935-AMZ111-154-330-350-352-354-374-450-454-472-221400- ...C-MAN AND BUOY OBSERVATIONS... STATION/POSITION TIME TEMP WIND PRES WAVE SWELL AIR SEA DIR/SP/G HT/PER HT/PER/DIR (UTC) (F) (DEG/KT/KT) (MB) (FT/S) (FT/S/D) FOLLY BEACH CMAN 1200 79 350/ 4/ 5 1019.4R BUOY 41004 1300 81 82 180/ 8/ 14 1018.4R 3/ 7 3/ 7 BUOY 41008 1300 81 83 320/ 6/ 8 1019.1R 2/ 8 2/110/ 8 5E ST. MARYS GA 1300 83 N/A 2/ 8 FRYING PAN BUOY NOT AVBL BUOY 41025 1300 VRB 12/ 16 1020.4F 3/ 8 2/130/ 8 CAPE LOOKOUT NC 1200 76 190/ 7/ 9 1020.2R BUOY 41002 1154 81 82 190/ 12/ 14 1021.8R 4/ 7 2/140/ 7 BUOY 41010 1300 83 83 150/ 14/ 17 1018.7R 4/ 5 2/110/ 8 BUOY 41012 NOT AVBL ST AUGUSTINE FL 1300 79 360/ 6/ 7 1019.4R CAPERS NEARSHORE 1200 78 10/ 8/ 10 N/A FRIPP NEARSHORE NOT AVBL $$

USA.gov is the U.S. government's official web portal to all federal, state and local government web resources and services.